Location: Brno
(49.2000°N, 16.6330°E)
Time: 00:21:45
(UTC+01:00)

Daily predictions for brighter satellites

Satellite Brightness Start Highest point End
(mag) Time Altitude Azimuth Time Altitude Azimuth Time Altitude Azimuth
ADEOS II 4.4 02:44:03 10° NE 02:47:38 19° E 02:47:38 19° E
Resurs 1-4 Rocket 4.4 02:55:01 10° N 02:56:09 17° N 02:56:09 17° N
ATLAS CENTAUR R/B 4.2 03:02:57 37° ESE 03:02:57 37° ESE 03:09:32 10° ESE
Lacrosse 4 Rocket 4.5 03:13:42 12° NE 03:13:42 12° NE 03:14:00 10° NE
Okean O Rocket 4.2 03:13:28 10° NNE 03:14:43 18° NE 03:14:43 18° NE
USA 234 3.8 03:16:53 10° ENE 03:23:03 47° SE 03:23:03 47° SE
Cosmos 2344 4.3 03:29:59 43° NW 03:30:55 44° NNW 03:40:21 10° NE
Iridium 4 Rocket 4.3 03:29:50 10° N 03:35:20 56° E 03:35:26 56° E
MOS 1 Rocket 4.1 03:44:15 10° NNE 03:48:33 57° NNE 03:48:33 57° NNE
ADEOS Rocket 3.7 03:43:40 10° N 03:49:24 48° NNW 03:49:24 48° NNW
Cosmos 2278 Rocket 3.7 03:53:04 26° NNW 03:53:04 26° NNW 03:56:14 10° NNE
Cosmos 2369 Rocket 3.6 03:53:50 19° SSE 03:57:10 34° ESE 04:02:14 10° NE
Okean-O 4.2 03:59:39 10° NNE 04:03:43 34° E 04:06:26 18° SSE
Lacrosse 5 rocket 3.2 04:15:59 21° NNE 04:15:59 21° NNE 04:18:01 10° NE
Cosmos 2084 Rocket 4.4 04:18:01 39° NE 04:18:01 39° NE 04:20:32 10° NE
CZ-2D R/B 4.2 04:19:00 10° NNW 04:20:05 14° NNW 04:20:05 14° NNW
ADEOS II 1.9 04:22:42 10° N 04:27:58 71° WNW 04:28:36 64° WSW
PSLV R/B 4.3 04:29:29 10° N 04:32:18 39° NNW 04:32:18 39° NNW
CZ-4B R/B 3.2 04:29:09 10° N 04:34:38 61° WNW 04:35:40 52° WSW
Cosmos 2056 Rocket 4.5 04:30:54 10° S 04:35:45 45° ESE 04:40:41 10° NE
Resurs 1-4 Rocket 4.3 04:36:43 10° NNW 04:37:14 11° NNW 04:37:14 11° NNW
SKYMED 2 4.2 04:37:09 10° SSE 04:41:24 57° ENE 04:45:40 10° N
Lacrosse 5 4.3 04:38:39 10° SSE 04:42:04 18° ESE 04:45:29 10° E
Cosmos 1869 4.4 04:44:35 31° NNW 04:44:35 31° NNW 04:47:00 10° N
PAYLOAD B 4.5 04:41:52 10° N 04:47:07 46° WNW 04:47:57 43° W
Cosmos 2266 Rocket 3.9 04:42:05 10° NNW 04:48:10 58° W 04:54:07 10° S
Lacrosse 4 Rocket 3.2 04:50:03 18° NNW 04:50:03 18° NNW 04:52:04 10° N
Feng Yun 1-1 Rocket 4.4 04:43:15 10° NNE 04:49:05 84° ESE 04:55:01 10° SSW
Thor Agena Rocket 3.4 04:44:16 10° S 04:49:28 66° WSW 04:54:39 10° NNW
RUBIN 8/PSLV 4.5 04:45:57 10° NNE 04:50:24 81° WNW 04:52:53 26° SSW
ATLAS 5 CENTAUR R/B 3.3 04:47:49 10° S 04:52:11 36° ESE 04:56:53 10° NE
Meteor PRIRODA 4.0 04:49:00 10° N 04:51:55 47° NNW 04:51:55 47° NNW
Cosmos 2242 Rocket 3.9 04:53:18 45° WNW 04:53:18 45° WNW 04:57:18 10° N
Okean O Rocket 3.1 04:50:07 10° N 04:52:11 21° NNW 04:52:11 21° NNW
Cosmos 921 Rocket 2.9 04:53:50 34° SSW 04:55:44 80° WNW 05:00:04 10° NNE
deb Kosmos-1763 4.0 04:56:53 59° WNW 04:57:17 65° WSW 05:01:03 10° SSE
Cosmos 1862 Rocket 3.4 04:57:13 28° SSW 04:59:23 65° WNW 05:03:44 10° N
Cosmos 1943 Rocket 2.9 04:55:28 10° S 05:00:47 52° ESE 05:06:10 10° NE
CZ-4B R/B 3.6 04:57:08 10° N 05:00:57 71° WNW 05:03:08 25° SSW
Cosmos 1371 Rocket 3.9 04:58:58 14° SSW 05:03:26 84° WNW 05:08:39 10° NNE
USA 234 3.3 04:59:54 10° NE 05:06:25 73° NNW 05:10:24 25° WSW
Cosmos 1703 Rocket 4.0 05:02:51 10° S 05:07:07 62° E 05:11:26 10° NNE
Cosmos 2221 Rocket 4.2 05:11:09 10° S 05:15:39 62° E 05:20:10 10° NNE
ERS-2 3.6 05:14:20 10° N 05:16:26 22° NW 05:16:26 22° NW
Cosmos 2297 Rocket 4.4 05:13:29 10° N 05:17:48 22° NE 05:22:07 10° E
Meteor 2-10 Rocket 3.6 05:16:04 10° S 05:21:03 77° E 05:26:07 10° NNE
Meteor 1-28 Rocket 3.0 05:17:29 10° S 05:21:12 80° WSW 05:24:58 10° NNW
Meteor 1-31 Rocket 3.3 05:20:36 10° N 05:24:15 37° WNW 05:26:10 22° WSW
Cosmos 2219 3.6 05:18:43 10° NNW 05:24:25 64° ENE 05:30:02 10° SE
Cosmos 1244 Rocket 4.5 05:19:27 10° NNW 05:25:39 63° W 05:31:46 10° S
COSMO-SKYMED 1 2.7 05:25:14 10° S 05:29:25 49° W 05:33:40 10° NNW
SS 1 4.4 05:29:56 23° NW 05:31:37 86° SW 05:34:50 10° SE
Cosmos 1933 3.9 05:30:53 14° SW 05:33:59 34° WNW 05:37:45 10° N
Cosmos 1867 3.6 05:30:01 14° SW 05:34:40 62° NW 05:40:08 10° NE
Radarsat Rocket 4.4 05:28:01 10° NNE 05:35:52 83° WNW 05:42:41 10° SSW
Cosmos 676 Rocket 4.1 05:31:09 10° NNW 05:36:21 58° WSW 05:41:33 10° S
BREEZE M DEB (TANK) 3.9 05:24:26 15° WSW 05:36:33 84° SSE 05:40:50 10° E
Cosmos 2278 Rocket 4.3 05:35:56 10° NW 05:37:13 11° NNW 05:38:30 10° N
Cosmos 2227 Rocket 3.9 05:32:08 10° NNW 05:37:15 32° NE 05:42:19 10° ESE
Cosmos 972 Rocket 4.2 05:32:29 10° SW 05:37:20 49° WNW 05:42:38 10° NNE
Cosmos 407 Rocket 3.9 05:32:48 10° NW 05:37:49 41° WSW 05:42:47 10° S
Sich 1 Rocket 4.2 05:34:33 10° NNW 05:38:40 33° W 05:42:44 10° SSW
Okean-O 3.4 05:36:16 10° N 05:40:09 30° WNW 05:44:01 10° SW
Cosmos 2369 Rocket 2.5 05:35:41 10° SW 05:41:03 47° NW 05:46:33 10° NNE
Cosmos 1023 Rocket 4.4 05:37:19 10° NNW 05:42:33 80° WSW 05:47:48 10° SSE
Meteor 1-14 Rocket 4.4 05:39:22 10° NNW 05:45:08 56° W 05:50:46 10° S
CZ-3B DEB 1.7 05:49:17 10° N 05:49:29 11° N 05:49:51 10° NNE
Abrixas 3.8 05:48:45 10° SW 05:51:24 33° SSE 05:54:03 10° E
IDEFIX/ARIANE 42P 3.5 05:47:43 10° NNE 05:52:52 53° E 05:57:56 10° S
Lacrosse 5 rocket 2.4 05:51:41 10° NW 05:54:59 31° NNE 05:58:15 10° E
S3M 4.0 05:48:57 10° SSW 05:55:19 77° W 06:01:40 10° N
Cosmos 1633 3.7 05:56:54 10° N 06:00:28 48° ENE 06:04:00 10° SSE
YAOGAN 1 4.3 05:56:29 10° NNE 06:00:33 37° E 06:04:34 10° SSE
Meteor 1-20 Rocket 4.3 05:59:52 10° NNW 06:05:34 61° W 06:11:07 10° S
Cosmos 1553 Rocket 4.0 05:59:49 10° SSW 06:05:55 63° WNW 06:12:11 10° N
Cosmos 1782 Rocket 4.4 06:02:22 10° NNW 06:06:18 30° W 06:10:12 10° SSW
ADEOS II 3.8 06:04:16 10° NNW 06:06:48 14° NW 06:09:21 10° W
Cosmos 1140 Rocket 3.8 06:05:51 10° NNW 06:10:51 47° WSW 06:15:50 10° S
SMAP 3.8 06:08:37 10° NNE 06:13:14 61° E 06:17:50 10° S
Cosmos 1656 Rocket 3.8 06:10:29 10° SSW 06:16:12 89° NW 06:21:55 10° NNE
Okean 2 Rocket 3.8 06:12:42 10° NNW 06:16:35 31° W 06:20:26 10° SSW
Cosmos 1850 Rocket 4.1 06:12:20 10° NNW 06:17:39 64° WSW 06:22:53 10° S
Cosmos 2056 Rocket 4.3 06:13:33 10° WSW 06:18:05 31° NW 06:22:41 10° N
Okean 1-7 3.5 06:14:24 10° SW 06:18:23 37° WNW 06:22:23 10° N
CSL-04 DEB 4.4 06:15:19 10° NNE 06:19:23 87° WNW 06:23:22 10° SSW
Cosmos 1782 2.8 06:17:22 10° SSW 06:21:18 63° WNW 06:25:16 10° N
Cosmos 1300 Rocket 3.8 06:19:41 10° N 06:24:11 82° E 06:28:36 10° SSE
Lacrosse 5 2.1 06:19:19 10° SW 06:24:23 79° SE 06:29:28 10° ENE
CZ-4 R/B 1.5 06:20:18 10° NNE 06:24:32 87° WNW 06:28:42 10° SSW
PAYLOAD A 3.8 06:20:36 10° N 06:25:14 61° WNW 06:29:54 10° SSW
